Location: Owatonna
(44.0840°N, 93.2260°W)
Time: 18:55:05
(UTC-05:00)

Daily predictions for brighter satellites

Satellite Brightness Start Highest point End
(mag) Time Altitude Azimuth Time Altitude Azimuth Time Altitude Azimuth
Cosmos 2026 Rocket 4.1 20:38:32 10° S 20:44:43 60° E 20:51:00 10° NNE
Cosmos 1461 4.3 20:42:34 10° NW 20:46:44 41° WSW 20:51:02 10° S
ERBS 3.6 20:44:15 10° S 20:46:56 21° SE 20:49:38 10° ENE
Envisat 3.1 20:42:04 10° SSE 20:47:03 62° ENE 20:52:05 10° N
Cosmos 1697 Rocket 2.8 20:42:02 10° SSW 20:47:39 90° ENE 20:53:20 10° NNE
YAOGAN 6 3.7 20:45:01 10° SE 20:48:01 26° ENE 20:51:01 10° NNE
H-2A R/B 4.4 20:45:18 10° SSW 20:48:51 36° W 20:52:24 10° NNW
Meteor 1-14 Rocket 4.4 20:44:23 10° SSW 20:50:04 81° W 20:55:42 10° N
ERS-1 Rocket 4.4 20:46:45 10° ESE 20:50:34 22° ENE 20:54:24 10° NNE
Cosmos 1633 2.8 20:47:11 10° SSE 20:50:38 45° E 20:54:07 10° NNE
Cosmos 2056 Rocket 3.5 20:46:33 10° SSW 20:51:40 90° SSE 20:56:55 10° NNE
SL-8 R/B 4.3 20:47:36 10° W 20:52:19 57° NNW 20:57:04 10° ENE
Cosmos 2227 4.4 20:50:08 10° NNW 20:55:41 56° ENE 21:01:14 10° SE
Intercosmos 25 Rocket 4.4 20:52:36 10° NNW 20:56:03 40° W 20:59:01 10° SSW
Meteor 1-25 Rocket 4.4 20:50:34 10° S 20:56:25 90° W 21:02:17 10° N
Cosmos 1812 3.6 20:55:48 10° NNW 20:59:36 53° W 21:03:22 10° S
ATLAS 3B R/B 4.2 20:56:29 10° NNW 21:01:50 23° NNE 21:07:00 10° E
Helios 1B rocket 3.4 20:58:55 10° NE 21:02:26 27° E 21:05:56 10° SSE
Cosmos 1536 Rocket 4.2 21:00:04 10° N 21:04:04 36° ENE 21:08:01 10° SE
Cosmos 1939 Rocket 2.9 21:00:52 10° SSE 21:04:49 63° ENE 21:08:45 10° N
Cosmos 2360 4.2 20:59:50 10° SSW 21:05:27 65° ESE 21:11:06 10° NNE
Cosmos 1602 4.0 21:05:07 10° SSE 21:08:48 46° E 21:12:29 10° NNE
Okean 2 Rocket 3.2 21:06:21 10° S 21:10:50 86° W 21:15:23 10° N
Cosmos 2297 Rocket 4.3 21:06:51 10° NW 21:11:25 26° WSW 21:15:58 10° SSW
SWAS 4.4 21:09:01 10° NNW 21:13:19 80° ENE 21:17:18 12° SSE
Okean 1 3.5 21:10:30 10° NNW 21:14:28 73° W 21:18:25 10° S
Cosmos 1452 Rocket 3.5 21:10:37 10° S 21:15:48 61° ESE 21:21:02 10° NNE
Cosmos 1536 3.8 21:15:57 12° SSE 21:19:04 29° E 21:22:38 10° NNE
CZ-4B DEB 4.5 21:15:39 10° SSE 21:19:10 88° WSW 21:22:43 10° NNW
Cosmos 1420 Rocket 4.2 21:17:06 10° S 21:22:03 48° ESE 21:27:01 10° NNE
Lacrosse 5 rocket 1.0 21:18:22 10° NW 21:22:03 80° NE 21:24:42 19° SE
Cosmos 839 Rocket 3.9 21:16:57 10° SSW 21:23:08 66° ESE 21:29:20 10° NE
Cosmos 407 Rocket 4.4 21:18:46 10° NNW 21:23:57 51° WSW 21:29:04 10° S
Meteor 1-19 Rocket 4.3 21:20:02 10° N 21:25:57 75° ENE 21:31:46 10° SSE
EXPRESS MD2 3.1 21:25:04 10° SW 21:27:44 51° SE 21:32:26 10° ENE
Cosmos 44 3.1 21:24:04 10° NW 21:28:30 85° SW 21:31:58 17° SSE
ATLAS 2AS CENTAUR R/B 3.7 21:24:30 10° SSE 21:30:55 30° ESE 21:37:38 10° NE
DELTA 2 R/B (1) 4.1 21:27:17 10° W 21:32:37 45° SSW 21:36:11 20° SE
Helios 1A 3.0 21:28:44 11° SSE 21:32:45 86° ENE 21:37:02 10° NNW
BREEZE-M DEB (TANK) 4.1 21:32:30 10° WNW 21:36:01 49° SSW 21:45:26 16° SE
NOSS 3-1 (A) 3.8 21:31:32 10° SW 21:37:20 70° NW 21:43:55 10° NE
Cosmos 2322 Rocket 2.4 21:32:07 10° S 21:37:34 49° ESE 21:43:02 10° NE
Cosmos 2263 Rocket 2.6 21:35:14 10° NNW 21:40:47 49° ENE 21:44:11 22° SE
NOSS 2-3 (E) 4.4 21:37:24 10° S 21:41:38 34° ESE 21:46:24 10° NE
SAR-Lupe-4 3.6 21:41:53 26° SSE 21:43:43 62° ENE 21:47:17 10° N
Abrixas rocket 3.0 21:41:29 10° W 21:44:41 50° NNW 21:47:34 12° ENE
ARGOS 3.5 21:41:52 22° SE 21:45:07 48° ENE 21:50:16 10° N
SL-16 R/B 2.2 21:40:33 10° S 21:46:04 57° ESE 21:51:37 10° NNE
S3M 4.2 21:40:29 10° NNW 21:46:43 75° W 21:53:00 10° S
Cosmos 2315 Rocket 4.3 21:42:48 10° N 21:48:48 47° ENE 21:52:23 23° SE
Okean 2 4.4 21:45:26 10° NNE 21:49:01 29° ENE 21:49:57 26° E
Resurs 01 Rocket 4.1 21:46:48 10° SW 21:50:04 20° W 21:53:21 10° NW
Cosmos 1553 Rocket 4.4 21:44:57 10° NNW 21:51:04 64° W 21:57:03 10° S
CZ-4B DEB 2.6 21:50:11 31° S 21:51:23 72° W 21:54:16 10° NNW
Okean 1-7 Rocket 4.1 21:52:49 10° N 21:57:05 41° ENE 21:58:28 32° ESE
Terra 3.4 21:57:53 18° E 21:59:04 20° ENE 22:02:28 10° NNE
SAR-Lupe-1 3.9 21:59:34 37° SSE 22:00:53 86° E 22:04:30 10° NNW
SeaSat 1 4.2 21:56:47 10° N 22:01:14 35° NW 22:05:41 10° WSW
Cosmos 2266 Rocket 3.8 21:55:29 10° S 22:01:31 81° E 22:07:34 10° N
Okean 1 Rocket 3.0 22:01:25 26° S 22:03:43 66° E 22:08:04 10° NNE
Cosmos 1140 Rocket 4.3 21:59:38 10° NNW 22:04:39 47° WSW 22:08:46 15° S
H-2A R/B 2.4 22:03:02 31° ESE 22:05:03 47° ENE 22:09:52 10° N
Meteor 1-29 3.2 22:01:41 10° N 22:05:06 67° WNW 22:07:40 16° SSW
Atlas Centaur 2 3.6 22:00:13 10° SW 22:06:04 25° S 22:07:34 23° SSE
Meteor 1-5 Rocket 4.0 22:02:22 16° S 22:06:42 71° E 22:11:59 10° NNE
Tiangong 1 1.4 22:07:24 10° W 22:09:34 47° WSW 22:09:34 47° WSW
Cosmos 1500 4.5 22:12:12 26° ENE 22:12:12 26° ENE 22:14:48 10° NNE
Meteor 2-4 Rocket 4.0 22:07:38 10° NNW 22:13:04 64° W 22:17:18 18° S
Cosmos 2360 Rocket 2.6 22:12:27 34° SE 22:13:39 38° ESE 22:18:50 10° NE
Cosmos 1607 4.1 22:08:01 10° NNW 22:14:29 72° NE 22:17:31 33° SE
Cosmos 1300 Rocket 3.9 22:10:26 11° SSW 22:14:30 63° W 22:18:47 10° N
Cosmos 1980 Rocket 3.9 22:09:55 10° WSW 22:14:57 33° NW 22:20:01 10° N
NOSS 2-3 (C) 3.8 22:10:25 10° SSW 22:15:03 65° ESE 22:20:29 10° NE
Cosmos 1741 Rocket 4.1 22:10:01 10° NNW 22:15:14 72° WSW 22:17:54 29° S
ERBS 3.6 22:20:03 10° WSW 22:23:23 43° NW 22:26:44 10° NE
MetOp-B 4.4 22:22:33 26° S 22:25:34 66° WSW 22:30:55 10° NNW
USA 238 DEB 4.3 22:19:01 10° NNW 22:25:52 50° NE 22:29:14 29° ESE
USA 238 4.3 22:19:06 10° NNW 22:25:59 49° NE 22:29:21 29° ESE
USA 245 4.0 22:23:53 33° S 22:26:26 83° WSW 22:31:10 10° NNW
SL-08 RB Rocket 3.6 22:25:29 45° SSE 22:26:55 89° W 22:31:30 10° NNW
Cosmos 1025 Rocket 2.9 22:23:59 10° N 22:28:17 87° WSW 22:29:14 54° S
ERS-1 Rocket 3.7 22:26:00 22° SSW 22:29:00 50° W 22:33:55 10° NNW
SPOT 5 2.8 22:27:37 41° S 22:29:24 86° WSW 22:34:12 10° NNW
Cosmos 1975 4.0 22:33:13 30° ENE 22:33:13 30° ENE 22:35:50 10° NNE
IGS 5A 4.4 22:33:10 34° ENE 22:33:10 34° ENE 22:36:47 10° N
SL-8 R/B 4.3 22:30:38 10° WNW 22:35:21 53° N 22:37:20 32° ENE
H-2A R/B 3.6 22:36:33 22° ENE 22:36:33 22° ENE 22:39:47 10° NNE
DMSP B5D2-2 4.2 22:33:46 10° NNE 22:38:55 53° E 22:39:27 51° ESE
Lacrosse 5 3.3 22:41:50 23° ENE 22:41:50 23° ENE 22:43:49 10° ENE
Cosmos 220 Rocket 4.0 22:36:08 10° NNW 22:40:25 72° WSW 22:40:58 62° SSW
Cosmos 1932 4.4 22:35:12 10° NW 22:41:45 87° WSW 22:43:52 46° SSE
Cosmos 1486 Rocket 4.5 22:36:51 10° N 22:41:53 44° ENE 22:42:37 41° E
Nimbus 7 Rocket 4.3 22:38:11 10° NNE 22:44:02 71° ESE 22:45:59 43° S
BREEZE-M DEB (TANK) 4.1 22:42:35 10° W 22:43:09 15° W 22:43:09 15° W
Cosmos 1066 Rocket 4.2 22:39:49 10° N 22:45:09 60° ENE 22:45:59 53° ESE
ATLAS 3B R/B 2.6 22:46:55 10° NW 22:53:42 75° NE 22:55:32 50° ESE
Cosmos 1110 Rocket 3.9 22:53:08 46° SSW 22:54:43 87° WNW 22:59:55 10° NNE
NOSS 2-3 (D) 4.2 22:50:02 10° SW 22:54:44 66° NW 23:00:19 10° NNE
Cosmos 1892 Rocket 3.5 22:52:05 10° N 22:56:26 82° NE 22:56:26 82° NE
GP-B 4.2 22:54:58 10° NNE 22:58:05 33° NE 22:58:05 33° NE
Lacrosse 5 rocket 3.7 22:59:05 10° W 23:00:24 12° WSW 23:00:24 12° WSW
SPOT 1/Viking Rocket 4.1 23:04:46 43° SW 23:06:00 53° W 23:11:08 10° NNW
Cosmos 1331 Rocket 4.2 23:11:20 48° SW 23:12:42 69° WNW 23:17:56 10° NNE
Cosmos 2237 4.0 23:14:12 74° ESE 23:14:18 75° ESE 23:20:01 10° NNE
Cosmos 1544 Rocket 3.8 23:15:26 66° N 23:15:26 66° N 23:19:20 10° N
Cosmos 2278 Rocket 3.4 23:12:42 10° N 23:17:35 29° NE 23:18:23 28° ENE
Nadezhda 1 Rocket 3.9 23:11:34 10° N 23:17:52 75° E 23:18:41 66° SE
Landsat 7 4.3 23:20:57 51° WSW 23:21:06 51° W 23:25:46 10° NNW
ATLAS 2AS CENTAUR R/B 3.2 23:13:35 10° SW 23:21:20 72° NW 23:29:30 10° NE
Cosmos 2322 Rocket 4.1 23:16:55 10° WSW 23:21:51 29° NW 23:26:47 10° N
Cosmos 2263 Rocket 3.7 23:19:45 10° NW 23:24:23 26° WSW 23:25:54 23° SW
Cosmos 1455 Rocket 3.6 23:28:43 57° NNW 23:28:43 57° NNW 23:32:25 10° N
SL-16 R/B 4.3 23:25:53 10° WSW 23:30:32 26° NW 23:35:13 10° N
Cosmos 1844 Rocket 2.6 23:28:29 10° NNW 23:34:09 85° NE 23:34:09 85° NE
Cosmos 1709 Rocket 4.3 23:34:50 49° ENE 23:34:50 49° ENE 23:40:20 10° NNE
Cosmos 2322 4.1 23:34:24 41° WSW 23:36:10 59° WNW 23:41:48 10° NNE
Terra 2.4 23:36:46 50° W 23:36:46 50° W 23:41:05 10° NNW
Cosmos 1437 Rocket 4.4 23:38:26 32° N 23:38:26 32° N 23:40:39 10° N
Cosmos 1503 Rocket 4.2 23:34:19 10° NNW 23:39:15 68° NNE 23:39:15 68° NNE
COSMOS 2428 2.7 23:42:03 78° NE 23:42:03 78° NE 23:47:25 10° NNE
H-2A R/B 3.8 23:43:41 21° WSW 23:44:41 22° W 23:48:36 10° NW
CZ-4B R/B 4.4 23:40:53 10° NNE 23:43:54 38° NE 23:43:54 38° NE
Cosmos 2219 Rocket 2.9 23:47:14 42° NE 23:47:14 42° NE 23:51:11 10° NNE
CENTAUR R/B 4.1 23:40:44 10° NNW 23:47:43 36° NE 23:52:00 23° E
SL-19 R/B 4.4 23:41:28 10° NNE 23:47:50 83° WNW 23:48:26 73° SW
Spot 4 4.4 23:52:40 55° NW 23:52:40 55° NW 23:56:29 10° NNW
